Location: Prairie Dale
(45.6972°N, 104.5033°W)
Time: 14:17:12
(UTC+00:00)

ESTCUBE 1 - Visible Passes

Search period start: 26 June 2022 00:00
Search period end: 06 July 2022 00:00
Orbit: 644 x 659 km, 97.9° (Epoch: 26 June)

Date Brightness Start Highest point End Pass type
(mag) Time Alt. Az. Time Alt. Az. Time Alt. Az.
26 Jun ? 04:37:51 21° SE 04:40:34 51° ENE 04:44:54 10° N visible
26 Jun ? 06:15:40 14° WSW 06:17:37 17° W 06:20:36 10° NW visible
27 Jun ? 03:29:40 10° E 03:31:27 12° ENE 03:33:13 10° NE visible
27 Jun ? 05:05:10 28° S 05:07:31 85° WSW 05:12:01 10° NNW visible
28 Jun ? 03:54:48 10° ESE 03:58:07 21° ENE 04:01:28 10° NNE visible
28 Jun ? 05:32:29 26° SSW 05:34:35 45° W 05:38:53 10° NNW visible
29 Jun ? 04:21:58 17° SE 04:24:55 36° ENE 04:29:01 10° N visible
29 Jun ? 05:59:47 18° SW 06:01:45 24° W 06:05:25 10° NW visible
30 Jun ? 04:49:17 25° SSE 04:51:49 67° ENE 04:56:16 10° N visible
30 Jun ? 06:27:06 11° WSW 06:29:01 13° W 06:31:13 10° WNW visible
01 Jul ? 03:39:58 10° E 03:42:34 15° ENE 03:45:11 10° NNE visible
01 Jul ? 05:16:35 29° S 05:18:48 65° WSW 05:23:16 10° NNW visible
02 Jul ? 04:06:05 12° ESE 04:09:18 26° ENE 04:13:00 10° N visible
02 Jul ? 05:43:54 23° SW 05:45:54 34° W 05:50:00 10° NNW visible
03 Jul ? 04:33:24 21° SE 04:36:07 46° ENE 04:40:25 10° N visible
03 Jul ? 06:11:13 15° WSW 06:13:06 19° W 06:16:19 10° NW visible
04 Jul ? 03:25:41 10° ENE 03:27:01 11° ENE 03:28:22 10° NE visible
04 Jul ? 05:00:43 28° SSE 05:03:03 87° ENE 05:07:33 10° NNW visible
04 Jul ? 06:40:12 10° W 06:40:25 10° W 06:40:38 10° W visible
05 Jul ? 03:50:31 10° ESE 03:53:41 19° ENE 03:56:52 10° NNE visible
05 Jul ? 05:28:01 28° SSW 05:30:04 50° W 05:34:27 10° NNW visible
